Theta_e
316 316 315 315 315 315 315 314 314 315 315 315 315 315 315 314 314 314 314 313 311 310 309 308 308 307 309 309 308 308 308 307 310 312 308 306 306 306 306 306 306 307 306 307 306 307 307 307 307 307 307 307 307 308 308 309 310 310 311 312 312 312 312 311 312 312 312 312 312 312 312 312 313 315
317 316 316 316 317 316 316 315 315 315 315 315 316 315 315 315 315 315 315 314 313 312 310 309 308 307 307 308 307 307 306 304 307 311 309 307 304 304 305 304 303 304 305 305 306 306 306 306 306 307 307 307 307 307 307 307 308 308 308 308 309 309 309 310 310 310 310 311 311 312 313 313 312 312
318 318 317 317 317 316 317 317 316 316 315 315 316 316 316 317 317 316 316 316 315 313 311 309 308 307 307 307 306 306 304 302 304 307 309 307 303 303 305 304 302 300 300 301 302 302 302 303 303 304 304 305 305 305 306 306 307 307 307 307 308 308 308 308 309 309 309 309 310 310 311 312 312 311
317 317 317 317 317 317 316 316 317 317 316 316 316 316 317 317 317 317 317 317 315 313 311 309 308 307 307 307 307 307 305 303 304 306 307 305 303 306 307 306 305 302 298 298 298 298 298 298 299 299 299 299 300 300 301 302 302 303 304 305 305 306 306 306 307 307 307 308 308 309 310 310 311 312
315 316 316 316 316 316 316 316 316 316 316 316 316 316 316 316 316 317 317 316 315 314 312 310 308 308 308 307 307 307 307 306 305 305 305 305 304 306 307 307 306 305 301 299 298 297 298 298 298 298 298 298 298 298 298 298 298 298 299 299 300 301 302 302 303 304 305 305 306 307 308 309 309 310
315 315 314 314 315 315 315 315 315 314 315 315 315 315 315 315 316 316 316 316 315 314 312 310 309 309 309 308 307 308 308 308 307 306 306 306 305 305 306 306 306 305 303 301 299 299 299 299 299 299 299 299 299 298 298 298 298 297 297 298 297 298 298 298 299 299 300 301 302 304 305 306 307 308
314 314 314 313 313 314 314 314 314 314 314 315 314 315 315 315 315 315 315 315 315 314 313 311 310 309 310 310 308 307 308 308 308 307 307 306 307 306 307 307 306 305 304 303 303 303 302 302 302 301 301 300 300 299 298 298 298 297 298 298 297 297 297 297 297 297 298 298 299 301 302 304 306 306
313 314 314 314 313 314 315 314 314 313 313 314 314 314 314 314 314 314 315 315 314 314 313 312 311 310 311 310 309 308 308 308 308 308 308 308 308 308 308 308 308 306 305 305 305 305 304 303 303 303 302 301 301 300 298 297 297 297 297 297 297 297 297 297 297 297 297 297 297 298 299 301 303 305
315 315 316 316 315 315 316 316 315 314 314 314 314 315 314 314 314 315 315 315 314 314 314 313 312 312 312 311 310 310 310 310 310 309 309 309 309 309 309 309 310 308 307 306 306 305 304 303 302 302 302 302 302 301 299 299 298 297 297 297 297 297 297 297 297 297 297 297 297 297 297 298 300 302
317 317 318 317 317 317 317 317 317 316 315 315 316 316 315 314 314 315 316 316 315 315 315 314 313 313 313 312 312 311 310 310 311 311 310 311 310 310 310 310 310 309 308 307 306 305 304 303 303 303 303 303 302 301 301 300 299 299 299 298 297 297 296 296 297 297 297 297 297 297 297 297 298 299
318 318 318 319 318 318 318 318 317 317 316 316 316 315 315 315 314 315 315 315 315 316 315 315 314 314 313 312 312 312 311 310 311 311 310 311 311 311 310 310 309 309 309 308 307 306 305 304 304 303 303 304 303 302 302 301 300 300 300 300 298 297 296 296 296 297 298 297 297 297 297 297 298 298
320 319 319 319 319 318 318 317 317 317 317 317 316 316 316 315 314 314 314 315 315 315 315 315 314 314 313 313 313 312 311 312 312 311 311 311 311 310 310 309 308 308 308 308 307 306 305 305 304 304 304 305 304 302 302 302 302 302 302 300 299 297 295 295 296 297 299 299 298 298 298 298 298 299
320 320 319 319 319 318 317 317 316 317 317 317 316 316 316 316 315 314 314 315 315 315 315 314 313 313 313 312 313 312 312 312 312 311 311 311 310 310 309 309 308 307 307 307 307 306 306 305 304 304 304 305 304 303 303 304 303 303 302 301 298 296 295 295 295 297 298 300 300 300 300 300 300 300
320 319 319 319 318 318 317 317 316 316 316 316 316 315 316 316 315 314 314 314 314 314 314 313 312 313 313 312 312 312 312 311 311 311 310 310 309 309 308 308 308 307 307 307 307 306 305 305 304 304 304 304 304 303 304 305 304 303 302 300 298 296 296 295 295 296 297 300 302 302 302 303 303 303
319 318 318 318 317 318 320 319 318 317 316 316 316 315 315 314 314 314 314 314 315 314 314 313 313 312 312 312 312 311 311 310 310 310 309 308 308 309 308 308 307 307 307 306 306 306 305 304 304 304 303 303 304 304 304 304 303 303 302 300 298 297 297 296 295 295 296 299 302 303 303 303 304 304
316 317 318 318 318 319 321 321 319 318 318 317 317 316 315 314 312 312 312 312 312 313 314 313 313 312 312 312 311 311 311 310 309 308 307 307 308 308 308 307 307 306 306 305 305 305 304 304 304 303 303 303 303 303 303 303 303 302 301 300 299 298 297 296 295 294 296 299 302 302 301 301 302 302
316 315 314 316 317 318 319 319 318 318 318 318 317 317 317 315 312 310 310 309 308 309 311 312 312 312 312 311 311 310 309 308 307 306 306 307 307 306 306 306 305 305 304 304 304 304 304 304 304 303 303 302 302 302 303 303 302 301 301 300 299 298 298 297 295 294 296 300 302 301 300 301 301 300
316 315 313 313 317 318 318 317 317 318 318 317 316 315 315 314 312 309 308 307 306 305 306 307 310 311 311 310 310 309 307 306 306 306 306 306 306 305 305 304 304 304 304 304 304 304 304 304 304 303 302 302 302 302 302 302 302 301 301 300 299 299 298 297 296 295 296 300 302 301 300 300 300 300
315 316 315 315 317 318 316 315 315 317 318 316 313 312 311 310 309 307 306 306 306 306 307 307 309 309 308 307 307 306 305 305 305 304 304 304 303 303 303 303 303 304 304 303 303 303 303 303 303 302 302 302 302 302 301 301 301 301 300 300 299 299 298 298 297 296 296 298 300 301 301 300 300 300
315 317 316 315 316 315 312 312 312 313 316 315 312 311 311 309 307 307 306 305 305 305 306 305 305 305 304 303 303 302 302 302 301 301 301 301 302 302 303 303 303 302 302 302 301 302 302 302 302 302 302 302 302 301 301 301 301 300 300 300 299 299 299 298 298 297 296 296 297 298 299 300 300 299
316 315 314 315 314 311 309 310 309 310 313 314 313 312 311 309 307 306 305 303 302 302 302 302 301 301 301 301 301 300 300 299 298 297 298 300 300 301 301 301 301 301 301 301 300 301 301 301 301 301 301 301 301 301 301 301 301 301 301 300 299 299 299 298 298 297 297 296 296 296 297 297 298 298
312 310 310 313 312 309 308 308 308 309 311 312 312 312 311 309 308 306 303 301 300 301 301 301 301 301 301 301 300 300 299 299 298 297 298 299 299 299 300 300 301 301 300 300 301 301 301 301 301 301 300 300 300 300 300 300 301 301 301 300 300 299 299 299 298 298 297 297 297 297 297 297 296 296
308 307 308 310 310 308 306 306 306 308 310 311 311 311 310 309 309 307 305 304 304 304 304 304 303 303 302 302 301 301 301 300 299 298 298 298 299 300 300 300 300 300 300 300 300 300 300 300 300 299 299 299 299 299 300 300 300 300 300 300 300 300 299 299 299 298 297 297 297 297 297 297 296 296
308 306 306 307 307 306 306 306 305 306 309 311 311 310 310 309 309 308 307 305 304 304 304 304 304 304 303 302 302 302 302 301 300 300 299 299 299 299 299 299 299 299 299 299 299 298 298 298 298 298 298 299 299 299 299 299 299 299 299 300 299 300 299 299 299 298 298 298 298 297 297 298 297 296
308 306 305 305 306 305 305 305 305 305 307 309 310 309 308 307 307 306 305 304 303 302 303 303 303 303 303 302 302 302 301 301 301 300 300 299 299 299 298 298 298 298 298 298 297 297 297 297 297 297 297 298 298 298 298 298 298 298 298 298 299 299 299 299 299 298 298 298 297 297 297 297 297 297
307 305 304 304 305 304 304 304 304 304 304 305 305 305 304 304 303 303 303 303 302 302 302 302 302 302 301 301 301 301 300 300 300 299 299 299 298 298 297 297 297 297 297 297 297 296 297 297 297 297 297 297 297 297 297 297 297 297 297 297 297 298 298 298 298 297 297 297 297 297 297 296 297 297
307 305 304 304 304 303 303 303 303 302 302 302 301 301 301 300 300 300 301 301 301 301 301 301 301 301 300 301 300 300 300 299 299 298 298 298 297 297 297 297 297 296 296 296 296 296 296 296 295 296 296 296 296 296 296 296 296 296 296 296 296 296 296 297 297 297 296 296 296 296 296 296 297 297
306 304 304 304 303 302 302 301 301 300 300 299 299 298 298 297 297 299 301 301 301 301 301 300 300 300 300 300 299 299 299 298 297 297 297 297 296 296 296 296 296 296 296 295 295 295 295 294 294 294 294 294 295 295 295 295 295 295 295 295 295 295 296 296 296 296 296 295 295 295 295 295 296 297
305 304 304 303 302 301 300 299 299 298 297 297 296 295 295 297 299 300 300 300 300 300 300 300 299 299 299 299 298 298 298 297 297 297 297 296 296 296 295 295 295 295 295 295 294 294 294 294 294 294 294 294 294 294 294 294 294 295 295 295 294 295 295 295 295 295 295 295 295 295 295 295 295 296
305 303 303 302 300 298 298 298 297 296 294 295 295 295 296 299 300 300 299 299 299 299 299 299 298 298 298 298 298 297 297 297 297 297 296 296 295 295 294 294 294 294 294 294 294 294 294 294 293 293 293 293 293 293 293 294 294 294 294 294 294 294 294 294 294 294 294 294 294 294 294 294 295 295
303 301 300 299 298 297 298 298 296 294 294 296 297 298 298 299 299 298 297 297 297 297 298 298 297 297 297 297 297 297 297 297 296 296 295 295 294 294 294 293 293 293 293 293 294 294 293 293 293 293 293 293 293 293 293 293 293 294 294 294 294 294 294 294 294 294 294 294 294 294 294 294 294 295
301 299 298 297 296 296 297 297 296 296 297 298 298 299 299 298 298 296 296 296 296 297 297 296 296 296 296 296 296 296 296 296 295 295 295 294 294 293 293 293 293 293 293 293 293 293 293 293 293 293 293 293 293 293 293 293 293 293 294 294 294 294 294 294 294 294 293 293 293 293 294 294 294 295
299 297 297 297 296 296 297 298 298 299 299 298 298 298 297 298 298 297 296 296 297 296 295 295 295 295 296 296 296 296 295 295 295 294 294 293 293 293 293 293 293 293 293 293 293 293 293 293 293 293 293 293 293 293 293 293 293 293 293 294 294 294 294 294 294 293 293 293 294 294 294 294 295 295
298 297 297 298 298 298 299 299 300 300 299 298 298 297 296 296 297 295 295 296 295 294 294 294 295 295 295 295 295 295 294 294 293 293 293 292 293 293 292 293 293 293 293 293 293 293 293 293 293 293 293 293 293 293 293 293 293 293 293 293 294 294 293 293 293 293 293 294 294 294 294 294 295 295
298 298 299 299 299 299 299 299 299 299 298 298 298 297 296 296 296 295 294 294 294 293 294 294 295 295 294 294 294 294 293 293 292 292 292 292 292 292 292 292 292 292 292 292 292 293 293 293 293 293 293 293 293 293 293 293 293 293 293 293 293 293 293 293 293 293 293 293 294 294 294 294 295 295
298 299 299 299 299 299 299 299 299 299 298 297 297 297 297 296 295 295 294 294 293 294 294 294 294 294 294 294 294 293 293 292 292 292 292 292 292 292 292 292 292 292 292 292 292 292 293 293 293 293 293 293 293 293 293 293 293 293 293 293 293 293 292 292 292 292 292 293 293 293 293 294 294 295
299 299 299 299 299 299 299 299 298 298 298 297 297 297 296 296 295 295 294 293 293 294 294 294 294 294 294 293 293 293 292 292 292 292 292 292 292 291 291 292 292 292 292 292 292 292 292 292 292 292 292 292 292 292 293 293 293 293 293 292 292 292 292 292 292 292 292 292 292 293 293 294 294 295
299 299 299 299 299 299 299 298 297 297 297 297 296 296 296 296 295 294 293 293 294 294 294 294 294 294 293 293 293 292 292 292 292 292 291 291 291 291 291 291 291 291 291 292 292 292 292 292 292 292 292 292 292 292 292 293 292 292 292 292 291 291 291 291 291 291 291 292 292 293 293 294 294 294
299 299 299 300 300 299 299 298 297 297 297 296 296 296 296 295 294 293 293 293 294 293 293 294 294 293 293 293 293 292 292 292 291 291 291 291 291 291 291 291 291 291 291 291 291 291 292 292 292 292 292 292 292 292 292 292 292 292 291 291 291 291 291 291 291 291 291 291 292 293 293 293 294 294
299 299 300 300 300 299 298 297 297 297 297 296 296 296 295 294 293 293 293 293 293 293 293 294 293 293 293 293 292 292 292 291 291 291 291 291 291 290 290 290 290 290 291 291 291 291 291 292 292 292 292 292 292 291 291 291 291 291 292 292 292 292 291 291 291 291 291 291 292 292 293 293 294 294
299 299 299 299 299 298 297 297 297 297 296 296 296 295 294 293 292 292 292 292 293 293 293 293 293 293 293 293 292 292 292 292 291 291 291 290 290 290 290 290 290 290 291 291 291 291 291 291 291 291 291 291 291 291 291 291 291 292 292 293 293 292 292 291 291 291 291 291 291 292 292 293 293 294
299 299 299 299 299 298 297 297 297 297 296 296 296 294 293 293 292 291 291 292 293 293 293 293 293 293 293 293 292 292 292 291 291 290 290 290 290 290 290 290 290 290 291 291 291 291 291 291 291 291 291 291 291 291 291 291 292 292 293 293 293 292 292 292 291 291 291 291 290 291 291 292 293 293
299 299 299 298 298 298 298 297 297 296 296 295 295 294 293 292 292 292 292 293 293 293 293 293 293 293 292 292 292 292 291 291 290 290 289 289 290 290 290 290 290 290 290 290 290 290 290 291 291 291 291 291 291 291 291 291 291 292 293 293 293 292 292 292 291 291 290 290 289 289 290 290 291 292
298 298 298 297 297 297 297 297 296 295 295 294 294 293 292 292 292 292 293 293 293 293 292 292 293 292 292 292 291 291 291 290 290 290 290 290 290 290 290 290 290 290 290 291 291 291 291 291 291 291 291 291 291 291 291 291 292 292 293 293 293 292 292 291 291 290 290 289 289 290 290 290 290 290
298 297 297 296 297 297 296 296 295 294 294 294 293 292 292 291 292 292 293 293 293 292 292 292 292 292 291 291 291 290 290 290 290 290 290 290 290 290 290 290 290 290 291 291 291 291 291 291 291 291 291 291 292 292 292 292 292 292 293 293 293 292 292 291 290 290 289 288 288 289 290 290 290 290
Wind_Speed
8 8 7 7 7 7 6 6 5 4 4 6 4 3 4 2 3 4 2 3 4 3 4 5 5 4 4 4 3 3 3 4 5 1 5 7 7 7 8 8 8 8 9 9 9 9 9 9 9 9 9 9 9 8 8 9 9 10 10 10 11 12 12 12 13 14 14 15 16 15 16 16 15 16
8 8 8 8 8 8 7 7 6 5 5 5 2 1 1 2 2 3 4 3 3 3 3 4 5 4 3 3 3 3 2 2 4 2 4 6 8 8 7 9 10 10 10 10 10 10 10 10 10 10 11 10 10 10 10 10 10 10 10 11 12 12 13 13 14 14 15 15 16 17 18 18 18 17
8 8 8 8 8 8 7 7 7 5 4 4 2 3 3 5 6 4 3 3 3 3 3 4 4 3 3 2 2 2 2 1 2 1 1 4 9 8 6 9 12 12 12 11 11 12 12 12 12 12 13 13 14 14 14 14 14 14 14 13 14 14 14 15 15 16 16 16 16 17 17 18 19 19
8 8 8 8 7 6 6 7 6 5 4 4 4 5 4 4 5 3 2 3 4 4 3 2 2 2 2 1 1 2 1 2 3 1 1 4 9 7 5 8 12 12 13 12 12 13 13 14 14 14 15 15 15 16 16 17 17 17 18 18 18 18 18 18 18 19 19 19 19 19 18 18 18 19
7 7 7 7 6 4 5 5 4 4 4 3 4 3 3 3 3 1 2 4 5 3 1 1 1 1 1 1 1 1 1 2 2 2 1 4 7 5 6 9 10 10 13 13 12 13 14 14 15 16 16 16 16 17 17 18 18 18 19 19 20 20 21 21 21 21 21 21 21 21 21 20 20 20
6 6 6 6 4 3 3 3 2 4 4 3 3 2 1 3 2 1 1 3 4 3 1 1 1 0 2 2 1 1 1 2 4 3 2 3 5 3 4 7 8 10 12 12 11 11 12 13 13 13 15 15 16 17 17 18 19 19 20 20 21 21 21 21 22 22 23 23 23 22 22 22 22 21
6 5 5 5 3 2 3 2 1 3 3 4 2 3 1 2 2 3 3 1 2 3 2 2 3 2 1 4 3 1 2 2 4 6 5 4 5 5 5 6 8 10 12 13 13 13 14 14 14 14 15 15 15 15 16 16 17 18 20 20 21 22 22 22 23 23 23 23 23 23 22 22 22 22
7 6 5 5 4 3 3 3 1 3 4 3 2 3 2 2 2 2 1 1 1 2 2 1 2 0 0 3 3 3 4 4 4 4 4 5 6 6 7 9 9 12 15 17 17 18 19 18 17 19 20 18 17 15 13 13 15 16 17 18 19 21 22 23 23 24 24 24 23 23 23 22 22 22
6 6 5 5 5 5 4 4 3 3 4 3 2 4 4 4 5 3 2 2 1 2 3 2 3 4 4 4 3 5 7 7 7 6 5 7 8 7 8 9 11 14 16 16 16 18 19 17 19 23 22 20 20 17 14 14 17 17 16 16 17 18 19 21 22 23 24 24 24 24 23 23 22 22
6 6 6 6 6 6 6 5 4 3 4 4 3 3 5 3 5 5 3 3 3 4 4 3 4 5 6 6 7 7 7 8 10 9 8 9 12 12 11 11 12 14 13 12 13 16 15 16 20 22 20 20 21 18 15 18 21 20 17 15 17 19 21 20 20 21 22 23 24 24 24 23 22 22
7 7 7 8 8 8 7 7 6 5 5 5 4 4 5 4 2 4 5 5 4 4 4 5 5 6 5 5 7 8 7 7 10 10 9 10 14 15 14 13 14 15 13 12 13 15 15 18 21 21 20 21 21 17 15 19 21 19 17 17 20 24 25 23 21 19 19 21 22 23 24 23 22 22
7 7 7 8 8 9 9 9 8 8 7 7 7 6 6 6 4 4 5 6 6 7 6 6 7 8 8 7 6 8 8 8 10 11 11 12 15 15 14 15 15 15 14 13 13 14 16 18 21 20 21 21 18 16 17 19 18 16 16 19 23 26 26 24 22 20 19 19 20 21 22 22 21 21
5 7 7 8 9 10 11 11 11 10 9 9 9 7 6 7 8 7 6 7 8 8 8 9 9 9 10 9 7 7 8 10 10 11 12 14 16 16 16 16 15 14 15 14 14 14 15 17 20 19 18 18 16 16 17 16 15 15 16 20 25 26 24 23 23 22 20 18 18 19 19 20 20 20
4 7 8 9 10 12 13 13 14 14 13 12 12 11 8 7 8 8 8 9 11 10 11 11 10 9 10 10 8 8 9 10 10 10 12 14 16 17 17 16 15 15 15 15 15 17 18 19 20 18 16 16 16 15 14 13 15 18 20 23 27 26 24 23 23 23 21 19 18 17 17 17 18 18
4 6 8 8 9 11 11 11 12 12 13 13 15 17 15 12 10 10 9 10 10 11 13 12 10 10 11 9 8 10 12 10 7 7 11 14 16 17 17 17 17 15 15 17 19 21 22 20 18 18 16 16 15 15 15 17 20 22 24 26 27 27 26 24 22 22 22 20 17 16 15 14 14 15
6 6 6 5 6 9 9 8 7 8 9 10 13 16 17 16 15 15 14 11 7 7 8 9 9 10 11 9 7 7 7 6 6 9 12 13 14 16 16 17 18 18 18 20 22 23 22 18 17 17 17 16 16 16 18 21 22 24 25 26 26 26 26 25 22 21 21 19 17 15 14 13 12 12
8 8 9 7 6 8 8 7 6 7 9 8 9 12 15 18 20 20 19 17 13 8 5 5 6 7 7 5 3 2 3 6 8 11 12 12 13 15 16 17 21 22 22 21 20 21 19 17 17 17 17 17 17 18 19 21 22 24 25 26 25 24 25 25 23 20 19 19 18 16 15 15 14 13
9 9 11 11 8 6 5 6 6 6 7 7 7 8 11 14 17 18 16 15 15 13 8 6 5 4 2 3 3 2 5 8 9 10 12 12 14 16 18 20 22 22 19 17 18 19 18 16 17 18 18 18 19 18 19 21 23 24 24 24 23 23 24 25 23 21 20 20 19 18 18 17 16 16
11 9 9 9 7 5 5 7 7 6 5 5 4 5 7 8 9 11 11 10 8 7 5 5 3 1 2 3 2 3 5 6 7 9 11 13 15 18 19 19 19 18 16 16 18 19 18 17 18 19 19 19 20 19 19 21 23 24 24 23 22 22 23 22 21 19 19 20 21 21 21 20 19 19
10 8 7 7 6 5 5 5 6 8 7 5 4 7 8 7 8 11 11 11 10 9 7 7 6 6 8 9 9 8 8 9 10 11 12 13 15 17 18 18 18 17 16 16 17 20 20 18 20 21 19 19 21 21 21 22 23 24 24 22 21 22 21 20 18 16 16 17 20 22 24 25 24 23
11 11 9 8 6 5 5 3 5 8 8 6 6 8 8 6 7 9 11 10 10 10 9 9 9 10 10 10 10 11 12 13 14 13 13 13 14 15 17 17 17 17 17 16 17 19 19 18 19 21 20 19 20 21 22 22 22 21 20 20 21 22 20 20 19 15 13 16 19 21 22 24 25 26
12 14 12 10 7 6 6 5 7 9 9 6 6 8 8 7 7 6 7 8 8 7 8 8 9 9 10 10 11 13 13 13 13 12 12 12 14 14 15 15 16 17 16 16 15 14 15 16 17 19 21 20 19 19 19 18 19 19 19 22 24 22 21 21 20 17 16 17 18 20 21 21 21 23
12 13 13 12 9 8 7 8 9 11 8 5 6 7 7 7 7 7 6 5 3 3 4 5 6 8 10 12 13 12 12 13 13 12 11 11 13 14 14 15 15 14 13 13 14 14 16 18 18 19 19 17 16 17 17 17 17 19 20 23 24 23 23 24 22 19 16 16 17 20 23 22 21 20
13 13 13 12 10 9 9 9 9 10 8 5 5 5 4 3 5 8 7 5 3 2 3 4 6 7 8 9 9 9 11 13 13 11 10 9 11 14 17 17 16 14 14 15 16 18 19 20 20 20 19 17 16 18 19 18 19 20 22 24 24 24 24 22 19 17 16 16 18 22 24 23 21 20
15 13 13 14 12 10 10 9 9 10 9 7 6 4 2 5 8 7 3 3 3 4 5 6 7 8 8 8 8 10 12 14 13 11 11 11 13 16 19 20 19 19 18 17 18 20 21 21 21 21 21 20 20 22 23 21 20 21 22 23 23 23 23 20 18 18 19 20 21 21 22 22 21 20
16 15 15 16 15 12 12 11 9 9 9 8 7 5 3 4 4 2 1 2 3 5 5 6 7 8 8 10 10 10 12 13 12 10 11 12 14 15 17 19 21 21 20 20 20 21 22 22 22 22 21 21 22 23 23 22 21 20 20 20 20 21 21 21 20 19 20 21 21 21 22 22 22 20
18 17 17 18 16 14 12 11 9 9 8 7 6 4 4 3 3 2 2 3 4 5 6 7 8 8 9 9 9 10 10 10 10 11 11 13 14 15 17 19 20 20 21 21 21 21 21 21 20 20 20 20 21 20 20 20 20 20 19 20 19 20 20 20 20 19 20 20 20 21 20 20 21 20
18 18 19 18 17 14 12 10 9 7 6 5 3 2 2 1 1 1 2 3 4 4 6 7 7 8 8 8 9 9 8 9 11 13 14 14 15 16 17 18 18 19 20 20 20 19 19 20 19 19 19 19 19 18 18 19 20 20 20 20 19 19 19 19 19 20 20 20 20 20 19 19 19 18
17 17 19 18 16 14 11 9 8 6 4 3 2 2 2 2 2 1 2 3 3 5 6 6 6 7 8 8 9 8 9 12 15 15 14 15 16 16 17 17 18 18 18 18 18 17 17 19 20 20 20 19 19 20 20 20 20 20 20 21 20 19 19 19 19 19 20 19 19 19 19 19 20 19
15 16 18 17 15 12 10 8 7 6 5 4 4 4 4 3 1 1 1 2 3 4 5 5 6 7 8 8 10 10 11 15 16 14 14 16 17 17 17 17 17 17 16 16 17 16 17 18 18 19 19 19 19 19 19 20 21 21 20 20 20 20 19 18 18 18 19 19 19 19 19 19 20 20
16 18 18 16 14 13 12 10 8 6 6 6 5 4 4 3 1 1 1 1 2 3 4 5 6 8 9 9 10 11 11 12 14 14 15 16 17 16 17 17 18 17 17 16 16 15 16 17 17 18 19 19 19 19 19 19 21 21 20 20 19 19 19 18 18 18 18 19 19 19 18 18 18 18
19 19 17 15 14 13 12 11 8 6 7 6 4 3 3 3 2 2 1 0 1 1 3 5 7 8 9 9 10 10 11 13 14 14 14 15 16 16 16 17 17 17 17 16 16 15 15 16 17 17 17 19 19 19 19 20 21 20 20 20 20 20 20 19 19 18 18 18 19 19 18 17 17 17
22 19 16 15 13 12 12 11 9 9 8 6 5 4 2 3 3 2 1 0 1 2 4 6 7 8 9 10 10 11 13 13 14 14 14 15 15 15 15 15 16 16 16 17 16 16 16 15 16 17 17 18 19 20 20 21 21 20 19 20 20 20 19 19 18 18 18 18 18 18 18 18 18 17
22 19 16 15 15 13 12 11 10 9 8 6 6 5 3 3 2 1 1 1 2 4 5 5 6 7 8 10 11 12 13 14 14 15 15 15 15 14 14 15 15 15 16 16 17 16 16 16 16 17 18 18 19 19 19 21 22 21 20 20 20 20 19 18 18 17 17 16 16 16 17 18 18 17
19 17 15 15 15 13 11 10 9 9 7 6 6 5 4 4 3 1 0 1 3 4 5 5 6 7 8 10 11 13 14 15 15 15 15 14 14 14 14 15 15 16 16 17 17 17 16 16 17 17 17 17 17 17 16 18 20 21 21 21 20 20 19 18 17 16 15 14 15 16 17 17 16 15
15 15 14 14 14 12 10 10 9 8 6 5 5 4 4 3 2 1 0 1 3 3 4 5 6 7 9 11 12 13 14 15 15 15 15 14 14 14 14 15 15 16 16 17 17 17 17 17 16 16 16 14 12 12 13 13 14 16 19 20 20 19 19 18 17 16 15 15 15 16 17 17 16 14
13 14 13 12 12 11 10 9 8 7 6 6 5 4 3 2 2 1 1 2 3 2 4 6 7 8 9 11 12 13 13 14 14 15 14 14 14 14 14 14 15 16 16 16 17 17 16 17 16 15 14 11 8 8 12 15 14 13 14 16 18 18 18 18 17 16 15 15 15 16 17 16 15 14
11 12 11 11 11 10 9 9 8 7 6 6 5 4 3 2 1 1 1 2 2 3 5 6 6 7 9 10 12 13 13 14 14 14 14 14 14 14 15 15 16 16 16 17 17 17 16 16 16 16 14 11 8 7 11 14 15 14 13 15 17 19 19 18 17 16 15 15 15 15 15 15 15 16
11 11 11 11 10 9 9 9 8 7 6 5 5 4 3 2 1 1 1 1 2 4 5 5 6 7 8 9 11 12 13 14 14 14 15 15 14 15 15 15 16 16 17 17 17 17 16 16 16 16 16 14 13 12 14 16 19 23 24 22 20 19 18 17 16 16 15 15 16 16 16 16 16 17
13 12 11 11 10 9 9 9 7 7 6 5 4 3 2 2 2 1 1 1 3 4 5 5 6 7 8 9 10 12 13 14 14 14 15 15 15 15 15 16 17 17 18 18 17 17 16 16 16 17 18 19 20 21 21 20 22 25 25 20 14 12 13 13 14 14 14 14 15 16 16 16 15 14
13 12 11 10 9 9 9 9 8 7 6 5 4 2 1 2 2 1 1 0 3 4 4 5 6 7 8 9 10 11 13 14 14 14 15 15 15 16 16 16 17 16 16 17 17 17 18 19 20 21 21 22 21 19 16 15 15 16 16 14 10 8 9 10 11 13 15 15 15 15 15 15 14 13
13 12 10 10 10 10 9 8 7 6 4 4 3 2 3 4 3 2 3 2 2 4 4 5 7 7 8 9 11 12 13 13 13 14 14 14 15 16 16 16 16 16 17 17 18 19 22 23 24 23 22 20 17 13 11 11 12 13 15 14 11 9 9 9 9 11 13 14 14 13 13 12 11 9
13 11 10 10 10 9 8 7 5 5 4 4 3 3 4 5 3 2 2 1 2 4 5 6 7 8 9 10 11 11 12 12 12 13 15 15 16 16 17 17 17 18 19 19 19 20 22 23 23 22 20 17 14 12 12 13 13 14 15 13 10 8 8 8 7 8 9 10 11 12 11 11 9 7
13 11 11 10 9 8 8 6 5 5 4 4 4 4 4 3 2 0 1 2 2 4 5 6 7 8 10 11 11 11 11 12 13 15 16 16 16 16 17 18 18 18 18 19 19 20 22 23 23 21 19 17 15 13 13 14 14 14 14 12 10 8 7 6 6 7 9 10 10 9 8 8 9 10
12 12 11 10 9 8 7 6 5 5 4 4 4 3 2 1 0 1 2 3 3 4 6 6 7 9 10 10 10 11 12 13 14 14 15 15 16 17 17 18 18 17 17 18 18 19 20 22 22 20 18 16 16 14 14 15 15 13 13 11 9 6 5 4 4 5 7 9 10 9 6 5 4 4
Wind_Direction
85 86 84 90 88 78 78 77 74 74 95 123 142 168 174 169 150 152 131 106 103 65 53 72 87 85 75 85 72 68 83 55 67 82 335 353 4 3 2 360 0 0 359 1 360 359 360 356 356 355 353 354 351 348 344 337 331 327 322 317 313 310 307 305 303 300 298 296 296 294 290 289 287 283
89 87 84 86 83 78 80 83 88 86 94 125 157 179 149 331 334 143 133 109 97 78 57 49 66 86 81 86 84 65 64 74 91 84 328 338 343 342 345 346 346 343 340 340 339 339 339 336 335 333 332 331 329 327 325 322 319 316 314 312 311 310 308 308 307 304 302 299 297 295 292 289 288 287
94 88 85 87 85 86 91 90 94 99 99 120 108 72 65 12 19 75 124 119 81 64 76 64 53 69 74 80 95 82 48 44 81 71 287 319 337 337 340 345 345 343 338 334 332 330 328 327 325 321 319 317 314 313 310 308 307 304 303 302 301 302 302 302 304 304 304 304 302 300 298 294 290 287
107 101 94 93 91 92 99 95 95 95 85 87 86 81 78 52 44 53 85 111 98 74 76 92 81 80 71 36 98 119 72 36 37 30 237 307 333 325 299 322 334 341 342 338 336 334 332 331 329 326 323 319 315 312 308 305 302 300 298 296 294 294 293 294 295 296 297 298 300 301 302 301 299 295
115 112 107 104 98 90 106 118 122 116 106 97 91 90 98 89 64 51 93 106 109 100 87 135 114 77 279 285 41 43 352 338 330 334 279 308 321 303 274 295 310 327 337 340 340 337 335 334 332 330 327 323 320 316 313 310 306 304 301 298 297 294 292 291 290 289 291 291 292 294 295 297 299 300
122 121 121 121 115 99 122 169 172 137 161 188 154 145 122 101 81 11 97 129 132 132 150 212 182 90 303 291 334 21 332 327 305 287 280 304 316 312 297 292 292 309 324 334 339 337 335 333 330 329 328 324 321 317 313 311 309 308 306 304 303 301 298 296 293 291 289 288 288 289 289 290 292 295
135 135 139 138 138 137 158 225 243 136 214 253 144 128 84 88 78 19 4 342 121 129 156 231 215 172 341 311 302 248 251 303 314 307 301 304 311 321 324 309 295 302 310 314 320 328 335 333 328 332 333 327 321 316 311 310 309 307 307 307 306 305 303 302 299 297 294 291 290 288 287 287 287 290
147 152 161 156 158 169 179 213 223 173 228 279 94 136 169 162 133 51 350 306 79 136 169 261 283 106 344 286 299 312 286 257 252 278 293 298 300 303 315 317 306 302 302 302 308 322 334 334 330 333 333 328 325 319 310 309 312 309 307 306 305 304 304 303 301 300 298 296 294 291 288 286 285 286
160 167 179 177 175 183 188 200 205 190 215 246 189 182 202 183 159 165 243 260 276 258 244 260 309 318 302 288 309 319 313 307 296 292 300 305 304 294 292 307 309 304 303 303 312 326 333 331 326 327 330 330 328 322 315 317 321 319 313 310 310 308 306 304 301 299 298 297 296 294 292 289 286 284
184 188 195 196 193 197 202 206 208 197 210 242 233 222 255 240 156 162 230 248 248 270 276 269 276 290 293 304 316 311 312 317 308 308 318 317 319 320 314 314 314 305 297 296 309 320 323 323 321 319 321 326 323 316 315 321 322 321 319 319 322 322 317 312 306 301 298 296 295 295 294 292 289 286
202 205 211 215 214 215 218 218 221 219 219 240 252 246 271 287 175 179 236 248 242 256 272 275 276 284 281 274 288 301 310 302 294 308 332 327 320 324 323 316 312 308 298 291 301 311 316 320 321 316 315 319 315 304 307 316 316 316 318 323 326 323 319 315 311 307 302 297 295 295 294 294 291 288
217 223 229 230 230 231 232 229 227 228 223 228 242 245 248 260 254 238 248 257 259 260 265 272 273 279 278 258 259 287 297 298 311 330 336 321 313 317 320 315 312 312 307 299 301 309 314 319 320 316 311 312 307 298 306 313 307 304 312 319 321 319 315 312 310 309 306 302 298 296 296 296 294 290
233 250 254 250 253 248 240 234 229 230 231 228 235 247 246 243 245 244 245 255 263 262 261 265 268 274 277 271 279 304 305 305 318 324 315 310 312 316 318 316 315 316 314 308 304 305 309 313 313 308 303 303 301 303 309 306 294 293 303 310 314 315 314 311 307 307 306 304 301 299 298 297 296 294
227 258 263 260 266 261 250 247 243 240 242 239 237 244 249 243 237 237 243 256 263 264 266 272 274 273 277 281 293 308 305 299 300 303 305 309 310 311 312 313 316 318 316 313 307 304 307 309 307 303 299 298 297 299 297 285 281 289 295 302 310 315 316 311 305 302 303 302 300 299 298 298 298 297
243 261 266 256 257 257 252 253 251 245 244 240 237 239 242 239 229 225 238 253 259 263 270 279 281 274 275 281 288 291 291 294 302 312 312 308 305 308 310 309 310 313 316 314 307 303 304 305 303 299 298 295 292 289 283 276 277 282 287 297 308 316 319 314 304 297 298 298 297 298 299 299 300 300
246 253 262 245 235 239 236 237 249 258 254 243 237 237 236 233 226 222 229 242 259 281 284 284 285 288 288 283 285 297 305 315 323 315 305 302 304 308 308 304 303 306 310 308 301 298 300 302 300 297 296 296 293 289 285 281 279 282 289 299 307 312 318 317 307 297 293 292 291 292 295 298 299 300
226 238 252 252 238 232 233 236 241 249 252 245 240 237 234 233 230 228 230 236 245 264 291 304 305 314 317 310 322 346 307 302 306 300 296 299 302 303 303 301 300 301 302 299 293 292 294 296 296 295 296 298 296 293 290 287 286 288 293 299 303 307 314 317 312 299 289 286 285 282 285 290 293 297
218 231 239 241 234 215 213 220 212 215 231 239 245 238 230 232 234 233 235 239 244 252 262 282 310 340 354 357 19 351 296 298 301 295 295 298 298 297 296 296 295 294 293 289 286 287 290 293 293 293 296 298 296 294 292 290 291 293 295 298 299 302 309 314 312 301 287 282 281 280 280 284 287 291
214 217 217 221 217 198 206 217 208 197 201 216 229 211 198 207 215 214 215 215 214 215 219 227 238 229 236 269 300 293 290 297 296 293 294 294 292 291 290 290 290 290 290 290 287 286 290 293 291 291 294 297 295 295 294 293 293 294 295 295 296 299 306 313 314 307 295 285 282 281 281 283 286 289
190 190 193 195 187 188 218 225 205 190 181 181 184 169 159 162 181 195 202 203 201 200 205 217 229 244 260 273 279 277 278 282 287 293 294 291 290 291 292 293 292 293 295 295 292 290 292 293 293 293 295 296 296 295 294 293 291 290 289 290 293 298 304 309 312 311 306 299 294 290 285 283 284 287
171 174 172 162 159 183 203 199 179 177 172 167 168 163 159 159 173 199 213 213 213 223 236 247 258 266 272 279 283 287 290 289 292 295 294 294 296 295 293 293 294 295 296 296 295 292 291 293 294 295 296 296 295 295 295 295 294 290 288 291 295 298 300 302 302 298 297 306 309 305 298 291 286 284
171 179 168 151 155 180 179 163 157 155 154 165 175 167 169 173 167 180 207 218 228 245 259 270 277 280 284 289 294 298 299 298 301 301 296 297 299 295 291 294 297 298 296 300 306 302 297 300 301 301 302 298 294 294 295 297 300 297 293 295 294 292 293 294 290 285 290 305 313 314 311 306 297 287
156 173 171 163 169 174 161 153 153 151 152 176 190 184 194 204 188 167 166 182 218 254 276 290 299 305 306 308 310 310 307 310 316 313 303 299 296 294 297 300 302 301 298 308 322 318 305 305 306 304 304 299 295 297 297 298 300 298 296 297 294 295 300 294 281 279 294 310 320 320 315 310 301 289
145 159 170 173 175 170 163 159 159 162 163 159 169 188 214 194 147 142 156 179 204 260 275 277 287 291 289 291 293 288 286 293 300 299 295 293 289 292 298 298 295 293 292 303 317 315 305 302 302 301 300 298 298 302 303 303 305 304 306 308 307 311 316 305 282 278 295 311 319 318 314 310 302 284
147 148 161 172 173 168 168 168 167 175 180 173 171 184 173 134 129 127 150 220 260 280 271 267 273 275 272 272 270 271 278 284 283 278 276 280 284 289 293 295 294 293 292 297 308 309 302 299 299 300 299 296 296 300 302 302 303 305 309 311 311 312 317 312 296 289 296 305 310 311 312 316 310 289
149 149 162 171 171 169 171 172 174 181 189 194 198 202 193 186 191 200 270 278 280 280 276 278 283 286 286 284 283 288 293 296 297 295 291 292 294 292 290 289 288 288 290 295 301 300 296 295 297 297 297 295 295 298 300 300 302 305 308 309 310 311 314 316 312 305 302 302 304 305 309 313 312 301
147 156 171 172 170 172 174 176 178 182 190 198 202 204 215 238 269 294 286 271 277 283 288 292 290 289 292 293 295 300 302 306 315 316 306 298 294 288 284 282 280 282 288 293 295 294 294 296 297 297 297 298 299 300 301 301 304 308 308 308 310 310 311 313 311 308 305 302 301 303 306 306 309 310
150 166 175 172 171 175 173 173 175 175 181 190 190 204 239 275 348 329 266 267 278 286 286 287 290 293 298 302 302 302 308 313 306 297 291 292 293 294 296 295 293 294 297 295 292 292 292 292 293 294 295 296 297 298 298 300 303 304 305 307 308 307 307 308 305 302 302 302 301 303 304 302 305 309
159 173 174 168 169 173 168 166 169 167 166 172 173 164 116 89 101 200 274 281 286 292 291 295 302 303 304 306 305 302 300 295 289 286 294 302 304 306 308 304 299 297 296 293 291 290 289 288 289 291 291 290 290 291 293 296 297 299 302 303 303 302 303 302 301 301 302 302 302 302 302 302 304 306
165 169 167 165 166 162 152 151 157 155 151 139 116 107 105 105 149 229 301 309 298 297 302 308 310 307 308 308 308 304 296 292 296 308 314 309 302 302 304 301 298 296 295 293 292 291 288 287 287 289 289 288 287 288 290 293 294 295 297 299 299 301 302 301 302 303 304 304 303 301 300 300 300 299
165 163 162 164 162 153 148 155 157 143 134 127 115 115 124 129 148 145 72 342 309 299 307 316 314 314 314 311 308 309 307 307 314 320 316 305 300 301 300 297 297 297 296 296 295 292 290 288 287 287 286 286 285 285 287 290 290 291 294 295 296 298 299 301 301 301 302 303 302 301 300 299 298 295
164 162 159 158 157 153 155 164 166 154 146 147 149 156 165 173 180 180 180 223 302 303 323 326 320 316 315 311 310 314 314 313 314 314 310 305 303 302 300 296 296 298 299 300 299 297 295 293 291 288 285 283 284 285 286 285 285 287 291 294 295 295 296 299 300 300 302 304 302 300 300 299 299 296
164 158 157 160 163 164 167 171 172 166 160 160 159 156 175 197 187 176 215 310 6 356 340 328 319 316 315 313 313 314 312 311 311 312 310 307 304 302 300 297 296 298 300 301 302 302 301 299 295 291 286 282 280 280 280 281 282 285 289 292 294 296 297 299 301 302 304 305 304 303 303 303 303 300
163 159 165 175 175 171 172 176 174 166 162 166 165 160 169 187 161 94 345 341 5 355 334 318 313 315 317 316 316 315 313 312 310 309 307 304 302 301 299 297 297 300 301 302 303 304 303 301 299 296 292 287 282 276 272 273 277 283 287 290 293 295 296 299 302 303 303 304 307 307 306 304 305 302
164 168 176 180 177 173 173 173 168 161 161 170 171 165 168 171 158 132 36 14 358 338 324 317 316 316 315 315 314 312 310 308 306 305 306 304 302 301 300 299 300 301 301 301 301 302 302 302 303 303 300 295 290 283 275 270 274 281 286 288 290 293 294 296 299 301 303 305 306 305 302 301 302 303
169 179 182 178 174 173 170 164 159 157 160 166 171 175 176 167 155 147 82 355 329 317 320 320 315 314 316 315 312 311 310 308 307 307 307 306 305 304 302 300 300 301 302 302 301 302 304 305 305 304 301 297 294 290 286 283 282 284 288 290 291 292 293 294 297 300 303 303 301 297 294 295 300 305
177 180 179 172 168 169 165 158 155 155 159 162 166 172 175 168 159 155 331 317 301 301 315 312 309 315 319 316 313 312 310 309 309 310 311 311 309 307 305 303 304 304 302 301 302 305 307 307 304 300 296 295 292 288 290 293 294 294 294 295 295 293 292 294 297 298 299 299 296 290 286 290 298 302
176 175 175 172 168 166 161 154 151 154 156 156 160 165 170 178 168 155 297 299 310 324 315 307 311 322 323 319 315 313 313 313 314 314 313 313 311 309 307 306 305 305 304 303 305 307 306 303 299 294 292 291 289 293 300 301 298 293 292 294 294 292 292 292 292 294 297 298 296 294 295 298 299 297
176 179 182 177 168 161 153 147 147 152 151 152 164 173 171 172 183 220 274 302 346 338 316 307 317 324 323 320 318 316 316 318 318 315 314 313 311 309 308 307 305 304 303 302 301 301 301 299 297 297 297 296 294 297 303 302 295 291 292 293 290 285 284 284 285 288 293 295 297 304 309 306 300 296
184 185 183 174 163 154 149 145 143 146 151 160 170 165 156 178 196 218 243 25 9 342 313 309 323 325 322 323 324 322 321 320 319 317 315 312 311 310 310 307 304 302 300 299 300 300 299 298 299 301 299 297 297 298 299 296 292 293 297 301 294 280 277 278 279 282 289 296 302 307 308 305 303 305
186 178 172 166 157 147 144 145 144 145 159 181 175 152 180 213 203 212 234 336 13 354 325 318 327 328 326 328 330 328 325 322 320 318 316 314 314 314 312 308 305 302 302 303 303 301 299 300 303 305 302 299 299 298 296 293 291 294 302 310 310 298 292 287 279 277 283 291 298 300 300 301 305 306
176 168 162 156 150 145 147 155 157 156 175 199 183 169 214 220 217 245 254 247 351 350 330 325 332 334 332 334 335 331 326 324 322 321 320 319 316 314 312 310 306 305 306 304 299 297 302 306 309 309 307 303 298 290 282 285 291 296 304 313 318 316 309 298 286 284 287 292 295 295 293 296 302 309
172 167 156 148 150 153 156 161 163 166 182 196 193 205 226 224 219 247 281 315 7 352 339 334 336 337 335 335 336 333 330 328 326 321 318 315 311 311 312 311 309 307 305 301 295 296 303 308 311 311 307 301 295 284 276 280 285 290 298 309 320 324 318 309 303 307 311 311 310 303 291 283 281 287
168 160 147 145 153 158 158 160 162 167 182 194 200 213 228 227 210 218 10 22 15 359 345 336 335 338 338 338 339 337 333 329 324 318 316 315 315 314 313 312 311 310 307 304 302 302 305 308 311 311 305 297 292 284 277 278 283 289 298 307 312 313 315 317 318 321 322 322 324 318 301 285 276 276
155 145 140 144 151 150 149 153 156 162 186 206 207 207 217 221 134 42 36 37 22 358 343 338 339 340 338 338 339 337 331 327 324 322 322 321 321 318 317 316 316 314 312 311 310 310 311 311 312 310 304 298 295 287 278 276 279 283 291 300 304 309 320 329 330 334 336 342 354 3 358 342 325 308